Flag for Greenland Weather past 2 weeks in Thule Air Base, Greenland

Now
39 °F

Mostly cloudy.


Feels Like: 39 °F
Forecast: 41 / 43 °F
Wind: 1 mph from Northwest

Location: Thule A. B.

Current Time: Jul 25, 2014 at 9:15:12 AM

Latest Report: Jul 25, 2014 at 8:58 AM


Visibility: N/A

Pressure: 29.90 "Hg

Humidity: 81%

Dew point: 34 °F

Location of Thule Air BaseLocation

Historic Weather in Thule Air Base — Graph

°F

Thule Air Base temperature yesterday

Maximum temperature yesterday: 41 °F (at 3:58 AM)
Minimum temperature yesterday: 36 °F (at 4:59 AM)
Average temperature yesterday: 39 °F

Past Weeks' High & Low Weather Summary

 TemperatureHumidityPressure
High55 °F (Jul 20, 8:58 AM)93% (Jul 11, 2:58 AM)30.07 "Hg (Jul 11, 2:58 AM)
Low36 °F (Jul 15, 7:58 PM)36% (Jul 20, 8:58 AM)29.38 "Hg (Jul 21, 1:58 AM)
Average43 °F76%29.78 "Hg
* Reported Jul 10 7:58 AM — Jul 25 7:58 AM, Thule Air Base, Weather by CustomWeather, © 2014

Note: Actual official high and low records may vary slightly from our data, if they occured in-between our weather recording intervals... More about our weather records

Advertising

Thule Air Base weather history for previous 24 hours

 ConditionsComfort  
Time TempWeatherWind HumidityBarometerVisibility
7:58 AM
Jul 25
39 °FLight rain. Low clouds.No wind81%29.92 "HgN/A
6:58 AM39 °FOvercast.2 mph81%29.93 "HgN/A
5:58 AM40 °FPartly sunny.3 mph80%29.93 "HgN/A
4:58 AM39 °FBroken clouds.No wind81%29.92 "HgN/A
3:58 AM37 °FOvercast.2 mph87%29.94 "HgN/A
2:58 AM39 °FPassing clouds.1 mph81%29.94 "HgN/A
1:58 AM39 °FOvercast.No wind81%29.95 "HgN/A
12:58 AM39 °FOvercast.No wind81%29.95 "HgN/A
11:58 PM
Jul 24
39 °FLow clouds.5 mph87%29.96 "HgN/A
10:58 PM41 °FMore clouds than sun.2 mph81%29.96 "HgN/A
9:58 PM41 °FOvercast.5 mph76%29.96 "HgN/A
8:58 PM39 °FOvercast.3 mph81%29.96 "HgN/A
7:58 PM39 °FCloudy.1 mph81%29.96 "HgN/A
6:58 PM39 °FLow clouds.3 mph81%29.96 "HgN/A
5:58 PM39 °FLow clouds.5 mph81%29.96 "HgN/A
4:58 PM39 °FMostly cloudy.6 mph81%29.95 "HgN/A
3:58 PM39 °FOvercast.5 mph81%29.94 "HgN/A
2:58 PM41 °FMore clouds than sun.3 mph76%29.94 "HgN/A
1:58 PM39 °FMostly cloudy.7 mph81%29.94 "HgN/A
12:58 PM39 °FMostly cloudy.3 mph75%29.94 "HgN/A
11:58 AM37 °FLow clouds.2 mph81%29.94 "HgN/A
10:58 AM37 °FLow clouds.3 mph81%29.94 "HgN/A
9:58 AM37 °FLow clouds.7 mph80%29.95 "HgN/A
Weather by CustomWeather, © 2014

See weather overviewHow to use our weather pages